| time (UTC) | temp F | wind direction | speed MPH | gust MPH | rain 1hr in | rain 24hr in | rain mn in | humidity % | barometer mb |
| 20260505230436 | 62 | 251 | 3.0 | 10.0 | 0.00 | 0.53 | 0.03 | 81 | 1016.5 |
| 20260505225428 | 62 | 268 | 4.0 | 10.0 | 0.00 | 0.54 | 0.03 | 79 | 1016.5 |
| 20260505224421 | 62 | 310 | 4.0 | 12.0 | 0.00 | 0.54 | 0.03 | 81 | 1016.6 |
| 20260505223420 | 63 | 296 | 2.0 | 10.0 | 0.00 | 0.54 | 0.03 | 79 | 1016.7 |
| 20260505222433 | 63 | 262 | 3.0 | 15.0 | 0.00 | 0.54 | 0.03 | 81 | 1016.6 |
| 20260505221425 | 63 | 322 | 8.0 | 12.0 | 0.00 | 0.54 | 0.03 | 78 | 1016.5 |
| 20260505220419 | 63 | 307 | 1.0 | 9.0 | 0.00 | 0.54 | 0.03 | 80 | 1016.6 |
| 20260505215437 | 63 | 314 | 5.0 | 10.0 | 0.00 | 0.54 | 0.03 | 81 | 1016.7 |
| 20260505214430 | 62 | 272 | 3.0 | 10.0 | 0.00 | 0.54 | 0.03 | 81 | 1016.9 |
| 20260505213424 | 62 | 326 | 5.0 | 11.0 | 0.00 | 0.54 | 0.03 | 81 | 1017.0 |
| 20260505212417 | 61 | 324 | 6.0 | 10.0 | 0.00 | 0.54 | 0.03 | 83 | 1017.1 |
| 20260505211415 | 61 | 325 | 6.0 | 11.0 | 0.00 | 0.54 | 0.03 | 82 | 1017.1 |
| 20260505210450 | 62 | 327 | 4.0 | 9.0 | 0.00 | 0.54 | 0.03 | 82 | 1017.1 |
| 20260505205422 | 62 | 309 | 3.0 | 8.0 | 0.00 | 0.54 | 0.03 | 81 | 1017.2 |
| 20260505204418 | 61 | 301 | 2.0 | 8.0 | 0.00 | 0.54 | 0.03 | 83 | 1017.2 |
| 20260505203431 | 61 | 274 | 3.0 | 9.0 | 0.00 | 0.54 | 0.03 | 83 | 1017.1 |
| 20260505202425 | 61 | 309 | 3.0 | 8.0 | 0.00 | 0.54 | 0.03 | 83 | 1017.2 |
| 20260505201417 | 61 | 326 | 2.0 | 9.0 | 0.00 | 0.54 | 0.03 | 83 | 1017.2 |
| 20260505200415 | 61 | 292 | 4.0 | 11.0 | 0.00 | 0.54 | 0.03 | 85 | 1017.3 |
| 20260505195426 | 61 | 296 | 5.0 | 12.0 | 0.00 | 0.54 | 0.03 | 84 | 1017.3 |
| 20260505194419 | 61 | 298 | 4.0 | 9.0 | 0.00 | 0.54 | 0.03 | 85 | 1017.2 |
| 20260505193434 | 61 | 320 | 3.0 | 8.0 | 0.00 | 0.54 | 0.03 | 86 | 1017.2 |
| 20260505192432 | 60 | 296 | 3.0 | 11.0 | 0.00 | 0.54 | 0.03 | 85 | 1017.3 |
| 20260505191425 | 60 | 316 | 5.0 | 10.0 | 0.00 | 0.54 | 0.03 | 86 | 1017.3 |
| 20260505190439 | 59 | 298 | 5.0 | 9.0 | 0.00 | 0.54 | 0.03 | 85 | 1017.3 |
| 20260505185430 | 59 | 337 | 6.0 | 14.0 | 0.00 | 0.54 | 0.03 | 86 | 1017.2 |
| 20260505184428 | 59 | 336 | 4.0 | 8.0 | 0.00 | 0.54 | 0.03 | 86 | 1017.3 |
| 20260505183423 | 59 | 337 | 5.0 | 11.0 | 0.00 | 0.54 | 0.03 | 85 | 1017.2 |
| 20260505182416 | 59 | 308 | 4.0 | 10.0 | 0.00 | 0.54 | 0.03 | 84 | 1017.2 |
| 20260505181448 | 58 | 331 | 5.0 | 11.0 | 0.00 | 0.54 | 0.03 | 84 | 1017.1 |
| 20260505180445 | 58 | 324 | 4.0 | 9.0 | 0.00 | 0.54 | 0.03 | 84 | 1017.1 |
| 20260505175416 | 58 | 315 | 3.0 | 9.0 | 0.00 | 0.54 | 0.03 | 86 | 1017.1 |
| 20260505174428 | 58 | 296 | 3.0 | 8.0 | 0.00 | 0.54 | 0.03 | 85 | 1017.0 |
| 20260505173426 | 58 | 306 | 2.0 | 8.0 | 0.00 | 0.54 | 0.03 | 85 | 1016.7 |
| 20260505083420 | 51 | 296 | 0.0 | 2.0 | 0.01 | 0.54 | 0.03 | 97 | 1016.2 |
| 20260505082433 | 51 | 282 | 0.0 | 5.0 | 0.01 | 0.54 | 0.03 | 97 | 1016.1 |
| 20260505081446 | 51 | 267 | 0.0 | 1.0 | 0.01 | 0.54 | 0.03 | 97 | 1016.2 |
| 20260505080421 | 51 | 289 | 0.0 | 0.0 | 0.02 | 0.54 | 0.03 | 97 | 1016.3 |
| 20260505075432 | 52 | 289 | 0.0 | 0.0 | 0.03 | 0.54 | 0.03 | 97 | 1016.5 |
| 20260505074424 | 52 | 289 | 0.0 | 0.0 | 0.04 | 0.54 | 0.03 | 97 | 1016.2 |
| 20260505073422 | 52 | 289 | 0.0 | 1.0 | 0.06 | 0.53 | 0.02 | 97 | 1016.4 |
| 20260505072435 | 52 | 289 | 0.0 | 4.0 | 0.10 | 0.53 | 0.02 | 97 | 1016.6 |
| 20260505071427 | 52 | 310 | 0.0 | 4.0 | 0.13 | 0.53 | 0.02 | 97 | 1016.3 |
| 20260505070441 | 52 | 296 | 2.0 | 5.0 | 0.14 | 0.52 | 0.01 | 97 | 1016.5 |
| 20260505065452 | 52 | 288 | 1.0 | 5.0 | 0.14 | 0.51 | 0.51 | 97 | 1016.6 |
| 20260505064429 | 52 | 300 | 1.0 | 4.0 | 0.13 | 0.50 | 0.50 | 97 | 1016.6 |
| 20260505063423 | 52 | 307 | 2.0 | 5.0 | 0.10 | 0.47 | 0.47 | 97 | 1016.2 |
| 20260505062437 | 52 | 308 | 3.0 | 7.0 | 0.06 | 0.43 | 0.43 | 97 | 1016.6 |
| 20260505061413 | 52 | 322 | 4.0 | 8.0 | 0.04 | 0.40 | 0.40 | 97 | 1016.5 |
| 20260505060427 | 52 | 309 | 2.0 | 6.0 | 0.02 | 0.38 | 0.38 | 97 | 1016.7 |
| 20260505055419 | 52 | 291 | 2.0 | 4.0 | 0.01 | 0.37 | 0.37 | 97 | 1016.7 |
| 20260505054451 | 52 | 300 | 0.0 | 3.0 | 0.01 | 0.37 | 0.37 | 97 | 1016.7 |
| 20260505053428 | 52 | 305 | 0.0 | 5.0 | 0.02 | 0.37 | 0.37 | 97 | 1016.5 |
| 20260505052420 | 52 | 317 | 4.0 | 7.0 | 0.02 | 0.37 | 0.37 | 97 | 1016.5 |
| 20260505051432 | 52 | 289 | 2.0 | 6.0 | 0.02 | 0.36 | 0.36 | 97 | 1016.8 |
| 20260505050424 | 52 | 304 | 0.0 | 2.0 | 0.03 | 0.36 | 0.36 | 97 | 1017.0 |
| 20260505041439 | 52 | 291 | 0.0 | 1.0 | 0.04 | 0.34 | 0.34 | 97 | 1017.3 |
| 20260505040451 | 52 | 291 | 0.0 | 3.0 | 0.04 | 0.33 | 0.33 | 97 | 1017.4 |
| 20260505035423 | 52 | 317 | 0.0 | 0.0 | 0.04 | 0.32 | 0.32 | 97 | 1017.3 |
| 20260505034417 | 52 | 317 | 0.0 | 0.0 | 0.05 | 0.31 | 0.31 | 97 | 1016.7 |
| 20260505033417 | 52 | 317 | 0.0 | 0.0 | 0.06 | 0.31 | 0.31 | 97 | 1016.1 |
| 20260505032430 | 52 | 317 | 0.0 | 0.0 | 0.06 | 0.30 | 0.30 | 97 | 1015.7 |
| 20260505031444 | 52 | 317 | 0.0 | 1.0 | 0.06 | 0.29 | 0.29 | 97 | 1015.8 |
| 20260505030421 | 52 | 317 | 0.0 | 1.0 | 0.06 | 0.29 | 0.29 | 97 | 1015.9 |
| 20260505025432 | 52 | 317 | 0.0 | 3.0 | 0.06 | 0.28 | 0.28 | 97 | 1016.1 |
| 20260505024426 | 52 | 314 | 2.0 | 6.0 | 0.05 | 0.26 | 0.26 | 97 | 1016.3 |
| 20260505023421 | 52 | 282 | 0.0 | 3.0 | 0.06 | 0.25 | 0.25 | 97 | 1016.2 |
| 20260505022419 | 52 | 313 | 1.0 | 5.0 | 0.07 | 0.24 | 0.24 | 97 | 1016.4 |
| 20260505021413 | 52 | 315 | 2.0 | 7.0 | 0.08 | 0.23 | 0.23 | 97 | 1016.6 |
| 20260505020428 | 52 | 320 | 3.0 | 5.0 | 0.08 | 0.22 | 0.22 | 97 | 1016.7 |
| 20260505015440 | 52 | 308 | 2.0 | 4.0 | 0.09 | 0.22 | 0.22 | 97 | 1016.6 |
| 20260505014416 | 52 | 305 | 0.0 | 1.0 | 0.09 | 0.21 | 0.21 | 97 | 1016.7 |
| 20260505013450 | 52 | 305 | 0.0 | 5.0 | 0.08 | 0.19 | 0.19 | 96 | 1016.7 |
| 20260505012422 | 52 | 303 | 1.0 | 4.0 | 0.07 | 0.16 | 0.16 | 96 | 1016.9 |
| 20260505011437 | 53 | 303 | 1.0 | 3.0 | 0.07 | 0.15 | 0.15 | 96 | 1017.0 |
| 20260505010451 | 53 | 303 | 1.0 | 3.0 | 0.07 | 0.14 | 0.14 | 96 | 1017.0 |
| 20260505005422 | 53 | 300 | 1.0 | 4.0 | 0.07 | 0.13 | 0.13 | 96 | 1017.1 |
| 20260505004415 | 53 | 303 | 1.0 | 4.0 | 0.07 | 0.12 | 0.12 | 95 | 1016.9 |
| 20260505003428 | 53 | 289 | 0.0 | 3.0 | 0.07 | 0.11 | 0.11 | 94 | 1016.9 |
| 20260505002425 | 54 | 277 | 0.0 | 4.0 | 0.05 | 0.09 | 0.09 | 94 | 1016.8 |
| 20260505001438 | 54 | 308 | 1.0 | 2.0 | 0.05 | 0.08 | 0.08 | 94 | 1017.0 |
| 20260505000431 | 54 | 308 | 1.0 | 3.0 | 0.05 | 0.07 | 0.07 | 93 | 1016.9 |
| 20260504235422 | 54 | 306 | 1.0 | 2.0 | 0.05 | 0.06 | 0.06 | 93 | 1016.9 |
| 20260504234440 | 54 | 312 | 3.0 | 5.0 | 0.05 | 0.05 | 0.05 | 92 | 1016.9 |
| 20260504233434 | 55 | 316 | 4.0 | 6.0 | 0.04 | 0.04 | 0.04 | 92 | 1016.5 |
| 20260504232428 | 55 | 324 | 3.0 | 6.0 | 0.04 | 0.04 | 0.04 | 92 | 1016.4 |
| 20260504231441 | 55 | 322 | 3.0 | 6.0 | 0.03 | 0.03 | 0.03 | 91 | 1016.7 |